Weather History for Chester, SC

Change the Weather History Date:

Friday, November 4, 2011

  Actual Average (KUZA) Record (KUZA)
Temperature  
Mean Temperature 54 °F -  
Max Temperature 59 °F 67 °F 84 °F (1961)
Min Temperature 46 °F 45 °F 25 °F (1966)
Degree Days  
Heating Degree Days 10    
Growing Degree Days 4 (Base 50)    
Moisture  
Dew Point 50 °F    
Average Humidity 88    
Maximum Humidity 100    
Minimum Humidity 63    
Precipitation  
Precipitation 0.04 in - - ()
Sea Level Pressure  
Sea Level Pressure 29.87 in    
Wind  
Wind Speed 7 mph (North)    
Max Wind Speed 26 mph    
Max Gust Speed 37 mph    
Visibility 8 miles    
Events Rain    
Averages and records for this station are not official NWS values.
T = Trace of Precipitation, MM = Missing Value Source: NWS Daily Summary

Daily Weather History Graph

Daily Weather History Graph

Search for Another Location

Airport:

Trip Planner

Search our weather history database for the weather conditions in past years. The results will help you decide how hot, cold, wet, or windy it might be!

Date:

Astronomy

Nov. 04, 2011 Rise Set
Actual Time 7:47 AM EDT 6:28 PM EDT
Civil Twilight 7:21 AM EDT 6:54 PM EDT
Nautical Twilight 6:51 AM EDT 7:24 PM EDT
Astronomical Twilight 6:22 AM EDT 7:53 PM EDT
Moon 3:07 PM EDT (11/4) 2:11 AM EDT (11/4)
Length of Visible Light 11h 32m
Length of Day
10h 40m
Waxing Gibbous, 69% of the Moon is Illuminated
Nov 4
Waxing Gibbous
Nov 10
Full
Nov 18
Last Quarter
Nov 25
New
Dec 2
First Quarter

Hourly Weather History & Observations

Time (EDT) Temp. Windchill Dew Point Humidity Pressure Visibility Wind Dir Wind Speed Gust Speed Precip Events Conditions
12:15 AM 55.4 °F - 55.4 °F 100% 29.79 in 5.0 mi East 4.6 mph - 0.01 in Rain Light Rain
1:15 AM 55.4 °F - 55.4 °F 100% 29.78 in 7.0 mi ESE 3.5 mph - 0.01 in Rain Light Rain
1:35 AM 55.4 °F - 55.4 °F 100% 29.77 in 7.0 mi NNE 3.5 mph - 0.02 in Rain Light Rain
2:15 AM 53.6 °F - 53.6 °F 100% 29.76 in 2.5 mi Calm Calm - N/A   Scattered Clouds
2:35 AM 53.6 °F - 53.6 °F 100% 29.77 in 1.2 mi Calm Calm - N/A   Overcast
2:55 AM 53.6 °F - 53.6 °F 100% 29.76 in 7.0 mi Calm Calm - N/A   Overcast
3:15 AM 53.6 °F - 53.6 °F 100% 29.75 in 5.0 mi Calm Calm - N/A   Overcast
4:15 AM 53.6 °F - 53.6 °F 100% 29.74 in 4.0 mi Calm Calm - N/A   Overcast
4:35 AM 53.6 °F - 53.6 °F 100% 29.74 in 4.0 mi Calm Calm - N/A   Overcast
4:55 AM 53.6 °F - 53.6 °F 100% 29.74 in 5.0 mi North 4.6 mph - N/A   Overcast
5:15 AM 53.6 °F - 53.6 °F 100% 29.74 in 7.0 mi NNE 8.1 mph - N/A   Overcast
5:35 AM 53.6 °F - 53.6 °F 100% 29.74 in 7.0 mi North 6.9 mph - N/A   Overcast
5:55 AM 53.6 °F - 53.6 °F 100% 29.74 in 7.0 mi North 3.5 mph - N/A   Overcast
6:15 AM 53.6 °F - 53.6 °F 100% 29.74 in 7.0 mi NNE 5.8 mph - N/A   Overcast
6:55 AM 51.8 °F - 51.8 °F 100% 29.74 in 7.0 mi North 10.4 mph - N/A   Overcast
7:15 AM 51.8 °F - 51.8 °F 100% 29.74 in 7.0 mi North 4.6 mph - N/A   Overcast
7:55 AM 51.8 °F - 51.8 °F 100% 29.75 in 7.0 mi NE 5.8 mph - N/A   Overcast
8:15 AM 51.8 °F - 51.8 °F 100% 29.76 in 7.0 mi North 4.6 mph - N/A   Overcast
8:35 AM 51.8 °F - 51.8 °F 100% 29.77 in 7.0 mi North 5.8 mph - N/A   Overcast
8:55 AM 51.8 °F - 51.8 °F 100% 29.77 in 5.0 mi NNE 5.8 mph - N/A   Overcast
9:15 AM 51.8 °F - 51.8 °F 100% 29.78 in 10.0 mi North 6.9 mph - 0.01 in Rain Light Rain
9:35 AM 51.8 °F - 51.8 °F 100% 29.79 in 7.0 mi North 11.5 mph 17.3 mph 0.01 in   Overcast
9:55 AM 53.6 °F - 53.6 °F 100% 29.80 in 7.0 mi North 15.0 mph - 0.01 in   Overcast
10:35 AM 51.8 °F - 51.8 °F 100% 29.82 in 7.0 mi North 18.4 mph 25.3 mph N/A   Overcast
11:35 AM 53.6 °F - 51.8 °F 94% 29.84 in 7.0 mi North 10.4 mph 20.7 mph N/A   Overcast
11:55 AM 53.6 °F - 51.8 °F 94% 29.85 in 10.0 mi NNW 11.5 mph 19.6 mph N/A Rain Light Rain
12:15 PM 53.6 °F - 53.6 °F 100% 29.85 in 10.0 mi NNW 13.8 mph 18.4 mph 0.01 in   Overcast
12:35 PM 53.6 °F - 53.6 °F 100% 29.85 in 10.0 mi NNW 10.4 mph 16.1 mph 0.01 in   Overcast
12:55 PM 55.4 °F - 53.6 °F 94% 29.86 in 10.0 mi North 11.5 mph 19.6 mph 0.01 in   Overcast
1:35 PM 55.4 °F - 50.0 °F 82% 29.85 in 10.0 mi North 13.8 mph 23.0 mph N/A Rain Light Rain
2:15 PM 59.0 °F - 51.8 °F 77% 29.85 in 7.0 mi North 15.0 mph 26.5 mph N/A   Overcast
2:35 PM 59.0 °F - 50.0 °F 72% 29.86 in 10.0 mi North 20.7 mph 28.8 mph N/A   Overcast
2:55 PM 57.2 °F - 48.2 °F 72% 29.87 in 10.0 mi North 12.7 mph 23.0 mph N/A   Overcast
3:35 PM 57.2 °F - 46.4 °F 67% 29.88 in 10.0 mi North 21.9 mph 33.4 mph N/A   Overcast
4:15 PM - - - N/A% 29.91 in - NNE 26.5 mph - N/A   Unknown
4:35 PM 57.2 °F - 46.4 °F 67% 29.92 in 10.0 mi NE 16.1 mph 36.8 mph N/A   Overcast
4:55 PM 57.2 °F - 44.6 °F 63% 29.94 in 10.0 mi NNE 23.0 mph 35.7 mph N/A   Overcast
5:35 PM 55.4 °F - 44.6 °F 67% 29.95 in 10.0 mi North 17.3 mph 25.3 mph N/A   Overcast
5:55 PM 55.4 °F - 44.6 °F 67% 29.97 in 10.0 mi North 15.0 mph 29.9 mph N/A   Overcast
6:15 PM 55.4 °F - 44.6 °F 67% 29.97 in 10.0 mi North 13.8 mph 21.9 mph N/A   Mostly Cloudy
6:35 PM 55.4 °F - 42.8 °F 63% 29.98 in 10.0 mi North 11.5 mph - N/A   Mostly Cloudy
6:55 PM 53.6 °F - 42.8 °F 67% 29.99 in 10.0 mi NNE 10.4 mph 16.1 mph N/A   Scattered Clouds
7:15 PM 53.6 °F - 42.8 °F 67% 30.00 in 10.0 mi NNE 9.2 mph - N/A   Mostly Cloudy
7:35 PM 53.6 °F - 44.6 °F 72% 30.02 in 10.0 mi North 6.9 mph - N/A   Overcast
7:55 PM 53.6 °F - 44.6 °F 72% 30.02 in 10.0 mi North 5.8 mph - N/A   Overcast
8:15 PM 53.6 °F - 44.6 °F 72% 30.03 in 10.0 mi North 5.8 mph - N/A   Overcast
8:35 PM 51.8 °F - 44.6 °F 76% 30.03 in 10.0 mi North 4.6 mph - N/A   Overcast
8:55 PM 51.8 °F - 44.6 °F 76% 30.04 in 10.0 mi North 5.8 mph - N/A   Overcast
9:15 PM 50.0 °F - 44.6 °F 82% 30.04 in 10.0 mi North 4.6 mph - N/A   Scattered Clouds
9:35 PM 50.0 °F - 44.6 °F 82% 30.05 in 10.0 mi North 5.8 mph - N/A   Clear
9:55 PM 50.0 °F - 44.6 °F 82% 30.06 in 10.0 mi North 8.1 mph - N/A   Clear
10:15 PM 50.0 °F - 44.6 °F 82% 30.07 in 10.0 mi North 6.9 mph - N/A   Clear
10:35 PM 50.0 °F - 44.6 °F 82% 30.09 in 10.0 mi North 6.9 mph - N/A   Clear
10:55 PM 50.0 °F - 44.6 °F 82% 30.10 in 10.0 mi North 8.1 mph - N/A   Clear
11:15 PM 46.4 °F 41.9 °F 44.6 °F 93% 30.09 in 10.0 mi North 9.2 mph - N/A   Clear
11:55 PM 48.2 °F - 42.8 °F 82% 30.11 in 10.0 mi North 10.4 mph - N/A   Clear